TimeCST,TemperatureF,Dew PointF,Humidity,Sea Level PressureIn,VisibilityMPH,Wind Direction,Wind SpeedMPH,Gust SpeedMPH,PrecipitationIn,Events,Conditions,WindDirDegrees,DateUTC
12:15 AM,60.8,39.2,45,30.30,10.0,SE,10.4,-,N/A,,Clear,140,2013-02-17 06:15:00
12:35 AM,60.8,39.2,45,30.29,10.0,SSE,10.4,-,N/A,,Clear,150,2013-02-17 06:35:00
12:55 AM,60.8,39.2,45,30.28,10.0,SSE,11.5,-,N/A,,Clear,150,2013-02-17 06:55:00
1:15 AM,60.8,39.2,45,30.28,10.0,SSE,12.7,-,N/A,,Clear,160,2013-02-17 07:15:00
1:35 AM,60.8,41.0,48,30.27,10.0,South,13.8,-,N/A,,Clear,170,2013-02-17 07:35:00
1:55 AM,60.8,41.0,48,30.27,10.0,SSE,13.8,-,N/A,,Clear,160,2013-02-17 07:55:00
2:15 AM,60.8,41.0,48,30.27,10.0,SSE,13.8,-,N/A,,Clear,150,2013-02-17 08:15:00
2:35 AM,60.8,42.8,52,30.25,10.0,South,13.8,-,N/A,,Clear,170,2013-02-17 08:35:00
2:55 AM,60.8,41.0,48,30.25,10.0,SSE,13.8,-,N/A,,Clear,150,2013-02-17 08:55:00
3:15 AM,60.8,42.8,52,30.24,10.0,SSE,16.1,-,N/A,,Clear,160,2013-02-17 09:15:00
3:35 AM,60.8,42.8,52,30.24,10.0,SE,15.0,-,N/A,,Clear,140,2013-02-17 09:35:00
3:55 AM,60.8,42.8,52,30.23,10.0,SE,13.8,-,N/A,,Clear,140,2013-02-17 09:55:00
4:15 AM,60.8,44.6,55,30.22,10.0,SE,13.8,-,N/A,,Clear,140,2013-02-17 10:15:00
4:35 AM,60.8,44.6,55,30.23,10.0,SSE,15.0,-,N/A,,Clear,150,2013-02-17 10:35:00
4:55 AM,60.8,44.6,55,30.23,10.0,SE,15.0,-,N/A,,Clear,140,2013-02-17 10:55:00
5:15 AM,60.8,44.6,55,30.22,10.0,SSE,16.1,-,N/A,,Clear,150,2013-02-17 11:15:00
5:35 AM,62.6,44.6,52,30.22,10.0,SE,15.0,-,N/A,,Clear,140,2013-02-17 11:35:00
6:15 AM,62.6,46.4,55,30.22,10.0,SE,15.0,-,N/A,,Clear,130,2013-02-17 12:15:00
6:35 AM,62.6,46.4,55,30.22,10.0,SE,16.1,25.3,N/A,,Clear,140,2013-02-17 12:35:00
6:55 AM,62.6,46.4,55,30.22,10.0,SE,16.1,-,N/A,,Clear,130,2013-02-17 12:55:00
7:15 AM,62.6,46.4,55,30.22,10.0,SE,15.0,-,N/A,,Clear,140,2013-02-17 13:15:00
7:55 AM,64.4,46.4,52,30.22,10.0,SE,18.4,-,N/A,,Clear,140,2013-02-17 13:55:00
8:15 AM,64.4,46.4,52,30.23,10.0,SE,16.1,-,N/A,,Clear,140,2013-02-17 14:15:00
8:55 AM,64.4,46.4,52,30.24,10.0,SE,17.3,-,N/A,,Clear,140,2013-02-17 14:55:00
9:15 AM,64.4,46.4,52,30.24,10.0,SE,19.6,-,N/A,,Clear,140,2013-02-17 15:15:00
9:35 AM,64.4,46.4,52,30.24,10.0,SE,19.6,-,N/A,,Clear,130,2013-02-17 15:35:00
9:55 AM,64.4,46.4,52,30.24,10.0,SE,20.7,-,N/A,,Partly Cloudy,140,2013-02-17 15:55:00
10:15 AM,66.2,46.4,49,30.25,10.0,SE,20.7,-,N/A,,Partly Cloudy,140,2013-02-17 16:15:00
10:35 AM,66.2,46.4,49,30.25,10.0,SE,21.9,-,N/A,,Partly Cloudy,140,2013-02-17 16:35:00
10:55 AM,66.2,46.4,49,30.24,10.0,SE,21.9,-,N/A,,Scattered Clouds,130,2013-02-17 16:55:00
11:15 AM,66.2,48.2,52,30.23,10.0,SE,20.7,-,N/A,,Scattered Clouds,140,2013-02-17 17:15:00
11:35 AM,66.2,46.4,49,30.22,10.0,SE,23.0,-,N/A,,Partly Cloudy,140,2013-02-17 17:35:00
11:55 AM,66.2,46.4,49,30.21,10.0,SE,21.9,-,N/A,,Clear,140,2013-02-17 17:55:00
12:15 PM,66.2,48.2,52,30.20,10.0,SE,23.0,-,N/A,,Partly Cloudy,140,2013-02-17 18:15:00
12:35 PM,66.2,50.0,56,30.18,10.0,SE,21.9,-,N/A,,Scattered Clouds,140,2013-02-17 18:35:00
12:55 PM,66.2,50.0,56,30.17,10.0,SE,23.0,-,N/A,,Mostly Cloudy,140,2013-02-17 18:55:00
1:15 PM,66.2,48.2,52,30.17,10.0,SE,24.2,-,N/A,,Mostly Cloudy,140,2013-02-17 19:15:00
1:35 PM,66.2,50.0,56,30.15,10.0,SE,21.9,-,N/A,,Mostly Cloudy,140,2013-02-17 19:35:00
1:55 PM,66.2,50.0,56,30.14,10.0,SE,24.2,-,N/A,,Partly Cloudy,140,2013-02-17 19:55:00
2:15 PM,66.2,50.0,56,30.13,10.0,SE,23.0,-,N/A,,Scattered Clouds,140,2013-02-17 20:15:00
2:35 PM,66.2,50.0,56,30.12,10.0,SE,25.3,-,N/A,,Scattered Clouds,130,2013-02-17 20:35:00
2:55 PM,66.2,51.8,60,30.11,10.0,SE,24.2,-,N/A,,Scattered Clouds,140,2013-02-17 20:55:00
3:15 PM,66.2,50.0,56,30.11,10.0,SE,24.2,-,N/A,,Scattered Clouds,130,2013-02-17 21:15:00
3:35 PM,66.2,50.0,56,30.10,10.0,SE,26.5,-,N/A,,Mostly Cloudy,140,2013-02-17 21:35:00
3:55 PM,66.2,51.8,60,30.08,10.0,SE,25.3,-,N/A,,Overcast,130,2013-02-17 21:55:00
4:15 PM,66.2,53.6,64,30.08,10.0,SE,26.5,-,N/A,,Overcast,130,2013-02-17 22:15:00
4:35 PM,66.2,53.6,64,30.08,10.0,SE,27.6,-,N/A,,Overcast,130,2013-02-17 22:35:00
4:55 PM,66.2,53.6,64,30.07,10.0,SE,26.5,-,N/A,,Overcast,130,2013-02-17 22:55:00
5:15 PM,66.2,53.6,64,30.07,10.0,SE,27.6,-,N/A,,Overcast,130,2013-02-17 23:15:00
5:35 PM,66.2,53.6,64,30.07,10.0,SE,26.5,-,N/A,,Overcast,140,2013-02-17 23:35:00
5:55 PM,66.2,55.4,68,30.07,10.0,SE,28.8,-,N/A,,Overcast,130,2013-02-17 23:55:00
6:15 PM,66.2,55.4,68,30.06,10.0,SE,27.6,-,N/A,,Overcast,130,2013-02-18 00:15:00
6:35 PM,66.2,55.4,68,30.06,10.0,SE,24.2,-,N/A,,Overcast,130,2013-02-18 00:35:00
6:55 PM,66.2,55.4,68,30.06,10.0,SE,27.6,-,N/A,,Overcast,130,2013-02-18 00:55:00
7:15 PM,66.2,55.4,68,30.06,10.0,SE,27.6,-,N/A,,Overcast,130,2013-02-18 01:15:00
7:35 PM,66.2,55.4,68,30.06,10.0,SE,26.5,-,N/A,,Overcast,130,2013-02-18 01:35:00
7:55 PM,66.2,57.2,73,30.06,10.0,SE,24.2,-,N/A,,Overcast,130,2013-02-18 01:55:00
8:15 PM,66.2,57.2,73,30.07,10.0,SE,26.5,-,N/A,,Overcast,130,2013-02-18 02:15:00
8:35 PM,68.0,55.4,64,30.06,10.0,SE,27.6,-,N/A,,Overcast,130,2013-02-18 02:35:00
8:55 PM,68.0,57.2,68,30.07,10.0,SE,25.3,31.1,N/A,,Overcast,140,2013-02-18 02:55:00
9:15 PM,68.0,57.2,68,30.07,10.0,SE,27.6,-,N/A,,Overcast,130,2013-02-18 03:15:00
9:35 PM,68.0,57.2,68,30.06,10.0,SE,25.3,-,N/A,,Overcast,130,2013-02-18 03:35:00
9:55 PM,68.0,57.2,68,30.06,10.0,SE,26.5,-,N/A,,Overcast,130,2013-02-18 03:55:00
10:15 PM,68.0,57.2,68,30.05,10.0,SE,25.3,31.1,N/A,,Overcast,130,2013-02-18 04:15:00
10:35 PM,68.0,57.2,68,30.05,10.0,SE,26.5,-,N/A,,Overcast,130,2013-02-18 04:35:00
11:15 PM,68.0,59.0,73,30.05,10.0,SE,24.2,-,N/A,,Overcast,140,2013-02-18 05:15:00
11:35 PM,68.0,59.0,73,30.03,9.0,SE,25.3,-,N/A,,Overcast,130,2013-02-18 05:35:00
11:55 PM,68.0,59.0,73,30.03,9.0,SE,25.3,-,N/A,,Overcast,130,2013-02-18 05:55:00